Regional Weather Roundup
Issued by NWS Newport/Morehead, NC

Home | Current Version | Previous Version | Text Only | Print | Product List | Glossary On
Versions: 1 2 3 4 5 6 7 8 9 10 11 12 13 14 15 16 17 18 19 20 21 22 23 24 25 26 27 28 29 30 31 32 33 34 35 36 37 38 39 40 41 42 43 44 45 46 47 48 49 50
000
ASUS42 KMHX 300625
RWRMHX
WEATHER ROUNDUP FOR EASTERN NORTH CAROLINA
NATIONAL WEATHER SERVICE NEWPORT/MOREHEAD CITY NC
200 AM EDT SAT APR 30 2016

NOTE: "FAIR" INDICATES FEW OR NO CLOUDS BELOW 12,000 FEET
WITH NO SIGNIFICANT WEATHER AND/OR OBSTRUCTIONS TO VISIBILITY

NCZ015>017-031-032-045>047-102-103-300700-
NORTH COAST

CITY           SKY/WX    TMP DP  RH WIND       PRES   REMARKS
EDENTON        CLOUDY    57  57 100 NE6       30.07S
ELIZABETH CITY CLOUDY    55  53  93 N10       30.06S
KITTY HAWK     CLOUDY    55  54  98 N9        30.03F FOG
MANTEO         NOT AVBL

$$

NCZ045>047-081-094-103-104-300700-
CENTRAL COAST

CITY           SKY/WX    TMP DP  RH WIND       PRES   REMARKS
FRISCO         CLOUDY    57  55  93 E7        30.03S
SWANQUARTER    NOT AVBL

$$

NCZ095-097-098-100-101-300700-
SOUTHERN COAST

CITY           SKY/WX    TMP DP  RH WIND       PRES   REMARKS
BEAUFORT       CLOUDY    64  60  87 E6        30.02R
CEDAR ISLAND   NOT AVBL
JACKSONVILLE   CLEAR     59  57  93 CALM      30.00F
PINEY ISLAND   NOT AVBL
WILMINGTON     PTCLDY    61  60  97 NE3       30.00F


$$

NCZ011>013-027>030-043-044-078>080-089-090>093-098-300700-
COASTAL PLAIN

CITY           SKY/WX    TMP DP  RH WIND       PRES   REMARKS
AHOSKIE        CLOUDY    56  54  92 NE6       30.07F
CLINTON        PTCLDY    61  60  97 CALM      30.02S
ELIZABETHTOWN  PTCLDY    64  62  93 CALM      30.01S
GOLDSBORO      CLEAR     59  59 100 N5        30.03R
GREENVILLE     CLOUDY    59  59 100 NE6       30.06S
HAVELOCK       MOCLDY    60  58  92 NE8       30.03R
KENANSVILLE    CLEAR     56  55  97 CALM      30.02F FOG
KINSTON        MOCLDY    58  58  98 N3        30.06R
NEW BERN       CLOUDY    61  58  90 NE6       30.04S
RICHLANDS      CLEAR     55  55 100 NE5       30.02S
ROCKY MOUNT    CLOUDY    59  58  96 NE6       30.06S
WASHINGTON     CLOUDY    58  56  92 NE9       30.04S
WHITEVILLE     PTCLDY    63  61  94 CALM      29.99F

$$

AMZ130-135-150-152-154-156-158-170-250-252-270-ANZ085-086-088-633-658-670-300700-
MARINE OBSERVATIONS

STATION/POSITION TIME  TEMP    WIND        PRES    WAVE   SWELL
                       AIR SEA DIR/SP/G            HT/PER HT/PER
                 (UTC) (F)     (DEG/KT/KT) (MB)    (FT/S) (FT/S)
CHESAPEAKE LIGHT 0600   53      20/ 16/ 18 1018.7
64 E VA BEACH    0550   53 53  360/ 16/ 19 1016.8    6/11   5/11
DUCK             0600   55 66   20/ 15/ 16 1017.1
2 E DUCK         0511      58                N/A     4/10   2/11
OREGON INLET     0600   55 64   10/ 10/ 17 1016.5
13E OREGON INLT  0600      56                N/A     4/ 8   3/ 8
HATTERAS CG      0600   59 70   30/  8/ 12 1016.5
DIAMOND BUOY     0550   60 74   30/ 14/ 17 1016.7    4/ 8   3/ 8
CAPE LOOKOUT     0600   65      70/ 10/ 11 1015.9
BEAUFORT LAB     0600   64 67   70/  5/  8 1015.5
30 SE NEW RVR IN 0525      68                N/A     2/ 5
27 SE WRIGHTSVLE 0608   69 70  110/  8/ 10 1015.3
5 SE WRIGHTSVLE  0608   67 68  110/  6/ 10 1016.3
225 S CAPE HAT   0550   71 71   30/ 12/ 14 1015.0    3/ 6   2/ 9
41 SE CHARLESTON 0550   74 73  130/  8/  8 1015.0    2/ 9   2/ 9

$$




USA.gov is the U.S. government's official web portal to all federal, state and local government web resources and services.